Location: Ferma
(41.9500°N, 44.5167°E)
Time: 17:35:06
(UTC+00:00)

Cosmos 220 Rocket - Pass Details

Date: 02 June 2022
Orbit: 572 x 614 km, 74.0° (Epoch: 30 June)

Event Time Altitude Azimuth Distance (km) Brightness Sun altitude
Exits shadow 20:23:03 25° 272° (W) 1,182 5.6 -25.2°
Maximum altitude 20:24:05 28° 297° (WNW) 1,098 5.6 -25.2°
Drops below altitude 10° 20:27:43 10° 357° (N) 1,889 7.6 -25.3°
Sets 20:30:12 0° 10° (N) 2,795 8.6 -25.4°
